SCP
0 0 0 -0 -0 0 -0 0 0 0 0 0 0 0 -0 -0 -0 -0 -0 -0 -0 -0 -0 -0 -0 -1 -2 -1 -1 -1 -1 0
0 0 0 0 0 0 0 -0 0 0 0 0 0 0 0 -0 -0 -0 -0 -0 -0 -0 -0 -0 -0 -1 -1 -2 -1 -2 -1 -0
0 0 0 0 0 0 0 0 0 0 -0 0 0 0 0 0 -0 -0 -0 -0 -0 -0 0 -0 -0 -1 -1 -1 -1 -1 -1 -1
0 0 0 0 0 0 0 0 0 0 -0 0 0 0 0 0 -0 -0 0 0 -0 -0 -0 0 -0 -1 -1 -1 -1 -1 -1 -1
0 0 -0 0 0 0 0 0 0 0 -0 0 0 0 0 0 0 0 0 0 0 0 0 -0 -0 -0 -1 -1 -2 -1 -1 -1
0 0 0 0 0 0 0 0 0 0 0 0 0 -0 -0 0 0 0 0 0 0 0 0 0 -0 -0 -0 -0 -1 -1 -1 -1
0 0 0 0 0 0 0 0 0 0 0 0 0 0 0 0 0 0 0 0 0 0 0 0 0 0 0 1 1 -0 -1 -0
0 0 0 0 0 0 0 0 0 0 0 0 0 0 0 0 0 0 0 0 0 -0 0 0 0 0 0 0 0 -1 -0 -0
0 0 0 0 0 0 0 0 0 0 0 0 0 0 0 0 0 0 0 0 0 0 0 0 0 1 1 0 2 1 1 2
0 0 0 0 0 0 0 0 0 0 0 0 0 0 0 0 0 0 0 0 0 0 0 0 0 1 1 2 2 3 2 3
0 0 0 0 0 0 0 0 0 0 0 0 0 0 0 0 0 0 0 0 0 0 0 0 0 1 1 2 3 3 3 3
0 0 0 0 0 0 0 0 0 0 0 0 0 0 0 0 0 0 0 0 0 0 1 1 0 1 1 1 2 3 3 2
0 0 0 0 0 0 0 0 0 0 0 0 0 0 0 0 0 0 1 1 0 0 0 1 2 2 1 1 2 2 1 2
0 0 0 0 1 0 0 0 0 0 0 0 0 1 1 1 0 0 1 2 1 0 0 0 1 4 3 2 1 2 3 3
0 0 0 0 1 5 4 4 5 3 2 3 4 5 6 6 5 4 4 5 6 2 4 6 1 3 5 3 3 5 5 6
0 0 0 0 0 1 1 1 1 1 2 2 2 4 5 6 6 6 5 5 5 7 7 8 7 6 6 8 8 12 10 17
-0 -0 0 0 0 0 0 0 0 0 0 1 2 3 4 4 5 5 4 5 4 6 7 8 10 11 13 13 16 24 29 28
-0 0 0 0 0 0 0 0 0 0 0 0 0 0 1 2 2 3 4 4 4 4 4 4 5 6 9 15 15 14 9 6
0 0 0 0 0 0 0 0 0 0 0 0 0 0 0 0 1 2 3 4 3 3 3 2 2 2 3 2 4 4 2 1
Wind_Speed_500mb
30 25 33 20 20 24 11 7 4 9 14 12 20 24 51 68 71 78 96 99 113 122 123 123 123 124 119 113 107 101 95 84
37 37 35 35 15 7 4 31 35 10 12 16 16 29 27 45 66 87 90 102 107 105 123 123 122 125 121 115 112 102 97 88
9 29 33 22 21 6 12 16 25 14 31 17 20 20 28 45 82 90 89 98 103 114 118 124 122 120 122 119 115 110 100 92
49 24 25 41 30 22 18 13 12 31 49 6 21 19 20 48 83 94 76 88 94 106 104 107 112 113 121 119 116 113 103 95
17 29 31 15 25 37 11 9 37 18 15 15 11 12 31 27 38 57 62 81 64 75 87 107 113 118 119 118 118 112 109 100
38 25 13 16 34 24 37 29 21 43 10 11 3 15 18 51 70 76 88 59 61 72 81 105 114 120 122 117 118 114 112 106
26 29 42 27 24 41 44 49 43 32 26 20 18 18 18 57 71 59 83 68 61 76 98 103 113 116 122 118 117 117 116 109
13 20 44 47 39 38 47 46 38 12 15 20 27 40 25 42 58 66 73 69 66 87 96 116 118 117 126 123 119 118 119 113
13 12 36 40 61 33 23 31 34 30 19 19 16 17 21 36 49 54 75 61 39 62 101 112 126 129 126 121 120 118 121 117
11 14 29 48 36 41 19 15 19 24 21 25 26 50 39 30 32 63 47 39 30 35 92 117 125 124 121 118 118 118 119 118
7 7 13 8 17 27 18 21 16 18 23 25 48 18 8 35 34 37 28 29 27 34 44 82 95 100 113 111 114 116 116 115
12 8 11 12 9 25 13 8 9 19 19 18 21 11 8 16 18 29 41 42 42 31 54 55 75 93 99 96 113 115 116 114
23 20 19 16 12 13 17 13 3 11 19 17 12 16 35 20 13 10 11 32 54 52 60 67 51 80 92 99 106 103 110 103
7 9 16 54 29 13 13 15 35 29 36 43 36 29 26 25 17 7 7 12 14 27 53 57 61 62 72 94 84 83 99 108
10 9 22 43 19 21 50 45 23 32 42 52 51 47 46 46 38 32 21 14 16 25 31 49 56 65 78 77 83 92 102 102
8 3 18 50 29 45 57 54 54 58 53 59 63 54 51 43 34 27 23 21 25 32 37 42 54 67 77 81 89 102 102 100
4 20 33 37 44 22 56 54 59 63 62 58 62 59 55 47 37 28 18 12 11 16 26 38 46 56 70 83 83 84 96 97
2 11 10 17 35 57 72 58 46 57 64 59 59 60 54 50 40 29 21 15 10 6 3 6 17 29 37 57 70 79 90 88
4 15 26 24 54 75 83 76 69 63 56 60 54 46 46 46 36 28 22 19 13 11 9 9 11 10 12 31 57 63 60 61
Wind_Direction_500mb
209 218 193 219 205 202 197 207 268 221 250 295 243 207 208 207 198 202 203 203 205 212 215 216 216 219 218 217 218 219 219 221
235 216 241 209 179 188 241 222 240 240 220 233 203 221 198 203 200 201 201 203 208 208 212 217 219 221 220 222 218 220 221 221
210 225 218 209 209 230 173 196 225 241 251 192 235 219 206 199 197 204 196 199 205 212 216 219 219 218 221 221 220 219 220 220
230 221 205 222 214 184 215 234 235 227 244 133 207 230 206 212 203 206 197 198 207 213 211 209 212 213 219 221 223 222 220 219
255 251 243 199 223 217 134 133 222 210 244 187 195 208 223 192 192 195 197 211 213 212 204 208 213 215 218 221 223 225 221 219
237 221 184 197 222 210 210 215 216 233 202 281 151 206 221 202 209 199 205 226 235 223 213 211 218 217 220 223 225 225 225 220
290 261 207 200 195 211 214 219 211 228 208 231 235 206 226 232 215 209 196 204 209 238 215 217 216 218 221 222 222 224 225 224
275 255 230 217 222 228 216 216 228 172 208 186 232 209 225 222 226 198 206 211 206 220 223 212 216 219 222 222 224 223 225 227
278 311 218 233 215 204 208 216 211 205 197 188 191 197 201 231 225 220 209 208 217 224 208 209 214 221 218 221 222 224 225 226
274 307 215 220 212 218 203 218 216 226 213 192 204 216 219 186 209 227 222 244 192 202 206 209 215 217 220 220 220 224 225 224
261 264 270 156 186 187 171 241 204 205 223 208 204 136 37 232 209 223 209 200 193 200 218 213 216 222 219 218 221 223 225 226
258 314 261 212 226 126 120 207 277 173 179 153 130 132 224 136 167 200 219 220 230 232 215 212 228 218 220 224 223 224 228 232
253 247 273 328 321 111 123 223 111 126 138 136 118 153 155 146 146 161 183 211 225 225 216 208 218 221 222 221 221 231 234 232
281 281 255 353 320 156 176 141 124 109 109 100 101 105 112 124 133 141 194 222 241 244 240 230 218 220 222 223 226 230 232 229
148 239 309 296 327 47 109 96 82 105 117 115 110 106 105 108 119 127 149 193 229 249 244 241 238 233 231 230 228 228 227 227
60 276 2 353 334 58 85 95 115 121 118 118 116 115 112 116 119 124 131 159 193 214 226 236 243 247 242 239 230 223 220 219
297 308 344 345 5 72 83 89 97 107 111 110 113 105 108 106 111 119 131 147 190 210 220 225 227 237 240 236 228 210 210 204
165 328 269 320 3 80 77 68 59 81 94 94 100 102 103 99 96 99 99 87 63 63 9 289 235 218 203 219 216 209 202 195
145 113 113 56 62 72 73 74 75 72 69 81 88 94 100 98 94 94 85 74 56 27 348 288 264 233 186 236 206 192 202 202
Wind_Speed_850mb
30 25 33 20 20 24 11 7 4 9 14 12 20 24 51 68 71 78 96 99 113 122 123 123 123 124 119 113 107 101 95 84
37 37 35 35 15 7 4 31 35 10 12 16 16 29 27 45 66 87 90 102 107 105 123 123 122 125 121 115 112 102 97 88
9 29 33 22 21 6 12 16 25 14 31 17 20 20 28 45 82 90 89 98 103 114 118 124 122 120 122 119 115 110 100 92
49 24 25 41 30 22 18 13 12 31 49 6 21 19 20 48 83 94 76 88 94 106 104 107 112 113 121 119 116 113 103 95
17 29 31 15 25 37 11 9 37 18 15 15 11 12 31 27 38 57 62 81 64 75 87 107 113 118 119 118 118 112 109 100
38 25 13 16 34 24 37 29 21 43 10 11 3 15 18 51 70 76 88 59 61 72 81 105 114 120 122 117 118 114 112 106
26 29 42 27 24 41 44 49 43 32 26 20 18 18 18 57 71 59 83 68 61 76 98 103 113 116 122 118 117 117 116 109
13 20 44 47 39 38 47 46 38 12 15 20 27 40 25 42 58 66 73 69 66 87 96 116 118 117 126 123 119 118 119 113
13 12 36 40 61 33 23 31 34 30 19 19 16 17 21 36 49 54 75 61 39 62 101 112 126 129 126 121 120 118 121 117
11 14 29 48 36 41 19 15 19 24 21 25 26 50 39 30 32 63 47 39 30 35 92 117 125 124 121 118 118 118 119 118
7 7 13 8 17 27 18 21 16 18 23 25 48 18 8 35 34 37 28 29 27 34 44 82 95 100 113 111 114 116 116 115
12 8 11 12 9 25 13 8 9 19 19 18 21 11 8 16 18 29 41 42 42 31 54 55 75 93 99 96 113 115 116 114
23 20 19 16 12 13 17 13 3 11 19 17 12 16 35 20 13 10 11 32 54 52 60 67 51 80 92 99 106 103 110 103
7 9 16 54 29 13 13 15 35 29 36 43 36 29 26 25 17 7 7 12 14 27 53 57 61 62 72 94 84 83 99 108
10 9 22 43 19 21 50 45 23 32 42 52 51 47 46 46 38 32 21 14 16 25 31 49 56 65 78 77 83 92 102 102
8 3 18 50 29 45 57 54 54 58 53 59 63 54 51 43 34 27 23 21 25 32 37 42 54 67 77 81 89 102 102 100
4 20 33 37 44 22 56 54 59 63 62 58 62 59 55 47 37 28 18 12 11 16 26 38 46 56 70 83 83 84 96 97
2 11 10 17 35 57 72 58 46 57 64 59 59 60 54 50 40 29 21 15 10 6 3 6 17 29 37 57 70 79 90 88
4 15 26 24 54 75 83 76 69 63 56 60 54 46 46 46 36 28 22 19 13 11 9 9 11 10 12 31 57 63 60 61
Wind_Direction_850mb
209 218 193 219 205 202 197 207 268 221 250 295 243 207 208 207 198 202 203 203 205 212 215 216 216 219 218 217 218 219 219 221
235 216 241 209 179 188 241 222 240 240 220 233 203 221 198 203 200 201 201 203 208 208 212 217 219 221 220 222 218 220 221 221
210 225 218 209 209 230 173 196 225 241 251 192 235 219 206 199 197 204 196 199 205 212 216 219 219 218 221 221 220 219 220 220
230 221 205 222 214 184 215 234 235 227 244 133 207 230 206 212 203 206 197 198 207 213 211 209 212 213 219 221 223 222 220 219
255 251 243 199 223 217 134 133 222 210 244 187 195 208 223 192 192 195 197 211 213 212 204 208 213 215 218 221 223 225 221 219
237 221 184 197 222 210 210 215 216 233 202 281 151 206 221 202 209 199 205 226 235 223 213 211 218 217 220 223 225 225 225 220
290 261 207 200 195 211 214 219 211 228 208 231 235 206 226 232 215 209 196 204 209 238 215 217 216 218 221 222 222 224 225 224
275 255 230 217 222 228 216 216 228 172 208 186 232 209 225 222 226 198 206 211 206 220 223 212 216 219 222 222 224 223 225 227
278 311 218 233 215 204 208 216 211 205 197 188 191 197 201 231 225 220 209 208 217 224 208 209 214 221 218 221 222 224 225 226
274 307 215 220 212 218 203 218 216 226 213 192 204 216 219 186 209 227 222 244 192 202 206 209 215 217 220 220 220 224 225 224
261 264 270 156 186 187 171 241 204 205 223 208 204 136 37 232 209 223 209 200 193 200 218 213 216 222 219 218 221 223 225 226
258 314 261 212 226 126 120 207 277 173 179 153 130 132 224 136 167 200 219 220 230 232 215 212 228 218 220 224 223 224 228 232
253 247 273 328 321 111 123 223 111 126 138 136 118 153 155 146 146 161 183 211 225 225 216 208 218 221 222 221 221 231 234 232
281 281 255 353 320 156 176 141 124 109 109 100 101 105 112 124 133 141 194 222 241 244 240 230 218 220 222 223 226 230 232 229
148 239 309 296 327 47 109 96 82 105 117 115 110 106 105 108 119 127 149 193 229 249 244 241 238 233 231 230 228 228 227 227
60 276 2 353 334 58 85 95 115 121 118 118 116 115 112 116 119 124 131 159 193 214 226 236 243 247 242 239 230 223 220 219
297 308 344 345 5 72 83 89 97 107 111 110 113 105 108 106 111 119 131 147 190 210 220 225 227 237 240 236 228 210 210 204
165 328 269 320 3 80 77 68 59 81 94 94 100 102 103 99 96 99 99 87 63 63 9 289 235 218 203 219 216 209 202 195
145 113 113 56 62 72 73 74 75 72 69 81 88 94 100 98 94 94 85 74 56 27 348 288 264 233 186 236 206 192 202 202